Dundee, United Kingdom

8:19 AM BST on June 23, 2017 (GMT +0100)
Dundee

Weather History for EGPN - March, 2013

Change the Weather History Date:

Friday, March 1, 2013

  Actual Average Record
Temperature  
Mean Temperature 40 °F -  
Max Temperature 48 °F 46 °F 55 °F (2012)
Min Temperature 33 °F 38 °F 21 °F (2001)
Degree Days  
Heating Degree Days 24    
Moisture  
Dew Point 35 °F    
Average Humidity 77    
Maximum Humidity 93    
Minimum Humidity 58    
Precipitation  
Precipitation 0.00 in - - ()
Sea Level Pressure  
Sea Level Pressure 30.49 in    
Wind  
Wind Speed 1 mph ()    
Max Wind Speed 4 mph    
Max Gust Speed -    
Visibility 6.2 miles    
Events      
Averages and records for this station are not official NWS values.
T = Trace of Precipitation, MM = Missing Value Source: Averaged Metar Reports

Daily Weather History Graph

Daily Weather History Graph

Search for Another Location

Airport or City:

Trip Planner

Search our weather history database for the weather conditions in past years. The results will help you decide how hot, cold, wet, or windy it might be!

Date:

Astronomy

Mar. 01, 2013 Rise Set
Actual Time 7:03 AM GMT 5:45 PM GMT
Civil Twilight 6:26 AM GMT 6:23 PM GMT
Nautical Twilight 5:42 AM GMT 7:07 PM GMT
Astronomical Twilight 4:58 AM GMT 7:51 PM GMT
Moon 11:03 PM GMT (3/1) 7:49 AM GMT (3/1)
Length of Visible Light 11h 57m
Length of Day
10h 41m
Waning Gibbous, 85% of the Moon is Illuminated
Mar 1
Waning Gibbous
Mar 4
Last Quarter
Mar 11
New
Mar 19
First Quarter
Mar 27
Full

Hourly Weather History & Observations

Time (GMT) Temp. Windchill Dew Point Humidity Pressure Visibility Wind Dir Wind Speed Gust Speed Precip Events Conditions
7:50 AM 33.8 °F - 32.0 °F 93% 30.54 in - Calm Calm - N/A   Clear
8:20 AM 35.6 °F - 33.8 °F 93% 30.54 in - WNW 1.2 mph - N/A   Clear
8:50 AM 39.2 °F - 35.6 °F 87% 30.54 in - West 1.2 mph - N/A   Clear
9:20 AM 39.2 °F - 35.6 °F 87% 30.54 in - WSW 1.2 mph - N/A   Clear
9:50 AM 39.2 °F - 35.6 °F 87% 30.54 in - WSW 2.3 mph - N/A   Clear
10:20 AM 42.8 °F - 37.4 °F 81% 30.54 in - SW 2.3 mph - N/A   Clear
10:50 AM 42.8 °F 41.1 °F 35.6 °F 76% 30.54 in - SW 3.5 mph - N/A   Clear
11:20 AM 44.6 °F 43.1 °F 37.4 °F 76% 30.54 in - WSW 3.5 mph - N/A   Clear
11:50 AM 46.4 °F 45.2 °F 37.4 °F 71% 30.54 in - SW 3.5 mph - N/A   Clear
12:20 PM 46.4 °F 45.2 °F 37.4 °F 71% 30.54 in 6.2 mi SW 3.5 mph - N/A   Partly Cloudy
12:50 PM 46.4 °F - 37.4 °F 71% 30.51 in 6.2 mi South 2.3 mph - N/A   Partly Cloudy
1:20 PM 44.6 °F - 37.4 °F 76% 30.51 in 6.2 mi SSE 1.2 mph - N/A   Partly Cloudy
1:50 PM 48.2 °F - 35.6 °F 62% 30.51 in 6.2 mi SW 1.2 mph - N/A   Partly Cloudy
2:20 PM 48.2 °F - 33.8 °F 58% 30.51 in 6.2 mi Calm Calm - N/A   Partly Cloudy
2:50 PM 48.2 °F - 33.8 °F 58% 30.48 in 6.2 mi Calm Calm - N/A   Partly Cloudy
3:20 PM 46.4 °F - 33.8 °F 62% 30.48 in 6.2 mi SSE 1.2 mph - N/A   Partly Cloudy
3:50 PM 46.4 °F - 33.8 °F 62% 30.48 in 6.2 mi Calm Calm - N/A   Partly Cloudy
4:20 PM 48.2 °F - 33.8 °F 58% 30.45 in 6.2 mi Calm Calm - N/A   Partly Cloudy
4:50 PM 44.6 °F - 35.6 °F 71% 30.45 in - SE 2.3 mph - N/A   Clear
5:20 PM 42.8 °F - 35.6 °F 76% 30.45 in - East 1.2 mph - N/A   Clear
5:50 PM 41.0 °F - 33.8 °F 76% 30.45 in - East 2.3 mph - N/A   Clear
6:20 PM 39.2 °F - 33.8 °F 81% 30.45 in - East 2.3 mph - N/A   Clear
6:50 PM 39.2 °F - 33.8 °F 81% 30.45 in - NNE 1.2 mph - N/A   Clear
7:20 PM 37.4 °F - 33.8 °F 87% 30.45 in - ENE 2.3 mph - N/A   Clear
7:50 PM 37.4 °F - 33.8 °F 87% 30.45 in - East 2.3 mph - N/A   Clear
8:50 PM 37.4 °F - 33.8 °F 87% 30.45 in - ENE 1.2 mph - N/A   Clear
9:20 PM 35.6 °F - 32.0 °F 87% 30.45 in - NNE 1.2 mph - N/A   Clear
9:50 PM 35.6 °F - 33.8 °F 93% 30.45 in - WNW 1.2 mph - N/A   Clear